"America/Chicago Time","Lifetime Energy (kWh)","Power (W)","AC Volts RMS (V) ","AC Amps RMS (mA)","Grid Frequency (Hz)","Inverter Temperature (C)"
"06/08/12 05:47:54","103.0323","0.0","214.0","0","60.03","19"
"06/08/12 06:02:51","103.0327","0.0","213.3","38","60.03","20"
"06/08/12 06:07:50","103.033","14.2","212.98","4","60.0","21"
"06/08/12 06:12:51","103.0334","7.3","212.24","0","60.0","21"
"06/08/12 06:17:52","103.0338","12.6","212.48","143","60.0","22"
"06/08/12 06:22:51","103.0344","10.8","216.6","6","60.03","22"
"06/08/12 06:27:50","103.0351","5.2","210.72","206","60.03","22"
"06/08/12 06:32:51","103.0359","12.6","213.0","43","60.03","22"
"06/08/12 06:37:52","103.0369","15.0","213.61","44","60.03","23"
"06/08/12 06:42:51","103.0381","14.6","213.47","19","60.0","23"
"06/08/12 06:47:50","103.0396","16.9","214.08","18","60.03","23"
"06/08/12 06:52:50","103.0412","14.0","215.02","16","60.03","24"
"06/08/12 06:57:50","103.0432","31.2","214.66","36","60.0","24"
"06/08/12 07:02:51","103.0453","26.2","214.62","148","60.0","24"
"06/08/12 07:07:51","103.0478","37.4","213.54","179","60.03","24"
"06/08/12 07:12:50","103.0504","37.7","214.34","316","60.03","25"
"06/08/12 07:17:51","103.0535","37.6","213.25","269","60.0","25"
"06/08/12 07:22:52","103.0569","49.8","213.93","397","60.0","26"
"06/08/12 07:27:50","103.0606","41.3","213.7","192","60.03","26"
"06/08/12 07:32:51","103.0646","58.1","214.5","294","60.03","27"
"06/08/12 07:37:51","103.0685","54.6","214.93","368","60.0","27"
"06/08/12 07:42:51","103.0729","41.0","214.47","352","60.03","28"
"06/08/12 07:47:51","103.078","74.6","214.74","370","60.0","28"
"06/08/12 07:52:51","103.0839","82.1","214.62","401","60.03","28"
"06/08/12 07:57:51","103.0905","86.7","215.97","421","60.0","29"
"06/08/12 08:02:51","103.0971","87.2","215.57","426","60.0","30"
"06/08/12 08:07:50","103.104","89.1","214.74","433","60.0","30"
"06/08/12 08:12:51","103.1107","75.4","214.56","375","60.03","31"
"06/08/12 08:17:52","103.1167","67.5","213.52","399","60.0","31"
"06/08/12 08:22:52","103.1199","37.5","213.8","201","60.03","31"
"06/08/12 08:27:52","103.1221","30.6","212.62","141","60.03","30"
"06/08/12 08:32:51","103.1245","40.6","213.62","143","60.0","29"
"06/08/12 08:37:52","103.1281","59.8","214.39","333","60.03","29"
"06/08/12 08:42:52","103.1323","67.3","214.27","339","60.03","29"
"06/08/12 08:47:51","103.1382","77.9","213.97","386","60.0","29"
"06/08/12 08:52:52","103.1446","84.9","213.91","415","60.0","29"
"06/08/12 08:57:51","103.1504","64.0","213.97","326","60.03","29"
"06/08/12 09:02:50","103.1561","79.0","215.27","388","60.03","30"
"06/08/12 09:07:51","103.1643","111.4","215.74","528","60.03","30"
"06/08/12 09:12:52","103.1731","91.2","215.06","445","60.03","31"
"06/08/12 09:17:51","103.1798","80.7","214.04","395","60.0","31"
"06/08/12 09:22:51","103.1849","58.4","214.63","265","60.0","30"
"06/08/12 09:27:51","103.1892","62.4","214.0","211","60.0","30"
"06/08/12 09:32:51","103.1931","44.7","212.25","195","60.03","29"
"06/08/12 09:37:51","103.1971","51.7","212.86","128","60.0","29"
"06/08/12 09:42:51","103.2012","45.0","214.49","381","60.0","29"
"06/08/12 09:47:51","103.2052","53.3","213.78","347","60.0","29"
"06/08/12 09:52:50","103.209","63.4","215.13","183","60.0","29"
"06/08/12 09:57:52","103.2134","56.8","216.1","168","60.0","28"
"06/08/12 10:02:51","103.2177","67.7","215.33","339","60.03","28"
"06/08/12 10:07:51","103.2235","102.5","215.92","488","60.0","29"
"06/08/12 10:12:51","103.23","67.8","214.6","340","60.0","29"
"06/08/12 10:17:50","103.2348","40.7","214.4","428","60.03","29"
"06/08/12 10:22:50","103.2381","33.9","210.47","167","60.03","29"
"06/08/12 10:27:51","103.2408","34.3","214.57","183","60.03","29"
"06/08/12 10:32:50","103.2429","33.9","214.46","226","60.0","29"
"06/08/12 10:37:52","103.2457","44.7","214.12","352","60.03","29"
"06/08/12 10:42:51","103.2489","45.8","214.05","351","60.03","28"
"06/08/12 10:47:52","103.2522","40.3","214.57","365","60.03","28"
"06/08/12 10:52:52","103.2556","37.4","213.36","121","60.0","28"
"06/08/12 10:57:51","103.2586","41.5","214.26","280","60.03","28"
"06/08/12 11:02:51","103.2611","29.0","213.59","52","60.03","29"
"06/08/12 11:07:51","103.2633","29.8","210.06","263","60.03","28"
"06/08/12 11:12:52","103.2661","28.9","215.97","82","60.0","28"
"06/08/12 11:17:51","103.2688","45.2","215.94","292","60.03","28"
"06/08/12 11:22:52","103.2725","67.3","214.47","377","60.0","28"
"06/08/12 11:27:51","103.2765","51.3","215.15","100","60.03","29"
"06/08/12 11:32:52","103.2831","93.4","211.99","455","60.0","29"
"06/08/12 11:37:51","103.2897","71.7","214.86","355","60.0","30"
"06/08/12 11:42:51","103.2956","70.9","214.76","356","59.96","30"
"06/08/12 11:47:51","103.3003","49.7","215.32","208","60.03","30"
"06/08/12 11:52:52","103.304","57.8","214.85","407","60.03","29"
"06/08/12 11:57:52","103.3087","53.1","215.12","370","60.03","29"
"06/08/12 12:02:52","103.3118","42.6","215.0","105","60.0","29"
"06/08/12 12:07:51","103.3153","56.7","214.7","90","60.0","28"
"06/08/12 12:12:51","103.3192","47.6","214.03","162","60.0","28"
"06/08/12 12:17:51","103.3221","25.5","213.27","73","60.03","28"
"06/08/12 12:22:51","103.3232","11.8","213.79","3","60.03","27"
"06/08/12 12:27:51","103.3241","13.9","214.41","16","60.03","27"
"06/08/12 12:32:50","103.3263","42.7","214.17","199","60.0","26"
"06/08/12 12:37:51","103.3297","40.1","214.49","235","60.0","27"
"06/08/12 12:42:51","103.3334","52.6","215.35","387","60.03","27"
"06/08/12 12:47:51","103.3367","45.2","214.25","159","60.0","27"
"06/08/12 12:52:51","103.3395","29.6","214.56","137","60.03","27"
"06/08/12 12:57:51","103.342","32.8","214.36","151","60.0","27"
"06/08/12 13:02:51","103.344","36.3","214.62","128","60.0","27"
"06/08/12 13:07:52","103.3464","27.9","215.09","112","60.0","26"
"06/08/12 13:12:50","103.3492","49.3","215.11","206","60.03","26"
"06/08/12 13:17:50","103.3531","41.8","215.61","277","60.0","26"
"06/08/12 13:22:51","103.3564","33.3","215.32","143","60.0","26"
"06/08/12 13:27:51","103.3598","62.4","215.2","162","60.03","26"
"06/08/12 13:32:51","103.3634","27.7","215.21","211","60.03","26"
"06/08/12 13:37:51","103.3652","30.1","213.25","78","60.0","26"
"06/08/12 13:42:52","103.367","20.5","215.23","40","60.03","26"
"06/08/12 13:47:52","103.3691","32.3","214.57","212","60.0","26"
"06/08/12 13:52:50","103.3713","38.7","214.75","130","60.0","26"
"06/08/12 13:57:51","103.375","44.1","214.93","365","60.03","26"
"06/08/12 14:02:51","103.3801","72.1","215.33","360","60.03","26"
"06/08/12 14:07:50","103.3858","87.4","215.66","423","60.03","27"
"06/08/12 14:12:52","103.3916","73.3","214.95","364","60.0","28"
"06/08/12 14:17:51","103.3984","64.3","214.19","327","60.03","29"
"06/08/12 14:22:52","103.4041","60.9","214.42","311","60.0","30"
"06/08/12 14:27:51","103.4067","25.0","214.02","100","60.0","31"
"06/08/12 14:52:50","103.4174","85.5","215.71","416","60.03","28"
"06/08/12 14:57:51","103.4228","64.5","216.09","326","60.03","28"
"06/08/12 15:02:51","103.4282","69.9","214.5","347","60.0","29"
"06/08/12 15:07:51","103.4331","57.6","214.35","340","60.03","29"
"06/08/12 15:12:51","103.4365","37.7","214.48","119","60.0","29"
"06/08/12 15:17:51","103.4404","42.1","213.57","355","60.0","30"
"06/08/12 15:22:50","103.4442","47.3","214.21","362","60.0","30"
"06/08/12 15:32:51","103.462","122.6","216.84","570","60.03","32"
"06/08/12 15:37:51","103.47","74.4","215.15","370","60.0","33"
"06/08/12 15:42:51","103.4746","40.6","214.66","374","60.0","32"
"06/08/12 15:47:50","103.4785","40.2","213.65","280","60.03","32"
"06/08/12 15:52:52","103.4822","55.5","214.14","203","60.03","32"
"06/08/12 15:57:52","103.486","48.6","214.77","245","60.03","32"
"06/08/12 16:02:51","103.4895","65.6","215.17","236","60.0","31"
"06/08/12 16:07:51","103.4955","81.0","215.5","396","60.03","31"
"06/08/12 16:12:51","103.5028","118.4","216.68","558","60.0","32"
"06/08/12 16:17:51","103.5104","58.4","215.52","154","60.03","32"
"06/08/12 16:22:51","103.5137","38.1","213.82","183","60.0","31"
"06/08/12 16:27:50","103.5177","66.4","215.28","332","60.0","31"
"06/08/12 16:32:51","103.5215","51.7","214.2","351","60.0","30"
"06/08/12 16:37:51","103.5283","102.1","216.26","486","60.0","31"
"06/08/12 16:42:52","103.5359","90.3","216.12","436","60.03","31"
"06/08/12 16:47:52","103.5419","35.5","214.46","217","60.03","31"
"06/08/12 16:52:51","103.5474","62.9","215.51","317","60.03","31"
"06/08/12 16:57:51","103.551","34.4","215.4","66","60.0","30"
"06/08/12 17:02:51","103.553","14.0","214.9","223","60.03","30"
"06/08/12 17:07:52","103.5565","42.1","215.47","238","60.0","29"
"06/08/12 17:12:51","103.5611","44.0","215.56","190","60.0","29"
"06/08/12 17:17:50","103.5656","40.9","215.5","147","60.03","29"
"06/08/12 17:22:52","103.5695","54.0","216.16","341","60.03","29"
"06/08/12 17:27:51","103.5736","72.0","215.33","272","60.0","29"
"06/08/12 17:32:52","103.5775","42.3","215.47","386","60.0","29"
"06/08/12 17:37:51","103.5812","38.7","215.04","198","60.03","29"
"06/08/12 17:42:52","103.5847","48.1","215.8","333","60.0","29"
"06/08/12 17:47:52","103.5877","42.3","214.88","288","60.03","28"
"06/08/12 17:52:51","103.5904","36.3","214.81","271","60.0","28"
"06/08/12 17:57:52","103.5919","23.8","214.61","241","60.07","27"
"06/08/12 18:02:51","103.5938","39.9","215.59","218","60.03","27"
"06/08/12 18:07:52","103.5958","24.5","215.13","259","60.0","27"
"06/08/12 18:12:51","103.5985","33.1","213.54","122","60.03","26"
"06/08/12 18:17:51","103.6011","22.4","213.26","241","60.03","26"
"06/08/12 18:22:51","103.603","31.5","214.11","35","60.0","26"
"06/08/12 18:27:52","103.6045","23.4","213.85","204","60.03","27"
"06/08/12 18:32:51","103.6057","14.4","212.92","4","60.03","27"
"06/08/12 18:37:52","103.6069","16.3","213.28","52","60.03","26"
"06/08/12 18:42:52","103.6079","6.8","213.39","199","60.03","26"
"06/08/12 18:47:52","103.6085","0.0","212.86","131","60.03","26"
"06/08/12 18:52:52","103.609","10.3","213.17","1","60.03","25"
"06/08/12 18:57:51","103.6095","12.0","212.98","4","60.03","24"
"06/08/12 19:02:52","103.6106","15.8","213.08","22","60.03","24"
"06/08/12 19:07:51","103.6116","6.7","212.83","149","60.03","24"
"06/08/12 19:12:52","103.6123","13.5","213.16","10","60.0","24"
"06/08/12 19:17:51","103.6127","0.0","213.61","19","60.0","24"
"06/08/12 19:22:52","103.6131","13.6","212.93","52","60.0","23"
"06/08/12 19:37:52","103.6138","14.0","213.23","3","60.03","23"
"06/08/12 19:42:52","103.6141","3.8","212.33","136","59.96","23"
"06/08/12 19:47:52","103.6144","14.5","212.49","0","60.0","23"
"06/08/12 19:52:51","103.6148","2.2","212.67","0","60.03","23"
"06/08/12 19:57:51","103.6151","11.0","212.22","140","60.0","22"
"06/08/12 20:02:52","103.6154","14.7","212.36","1","60.0","22"
"06/08/12 20:07:52","103.6156","10.7","213.53","40","60.0","22"
"06/09/12 05:52:52","103.6156","13.0","213.97","12","60.03","18"
"06/09/12 05:57:52","103.6158","14.5","213.66","6","60.03","18"
"06/09/12 06:02:52","103.6162","10.7","215.34","24","60.03","19"
"06/09/12 06:07:52","103.6166","0.0","214.82","0","60.03","19"
"06/09/12 06:12:53","103.6171","5.9","214.9","0","60.0","19"
"06/09/12 06:17:53","103.6176","0.5","213.68","197","60.03","20"
"06/09/12 06:22:52","103.6182","10.8","213.65","12","60.03","20"
"06/09/12 06:27:51","103.6188","15.8","214.11","76","60.0","20"
"06/09/12 06:32:52","103.6197","16.8","213.6","90","60.0","21"
"06/09/12 06:37:52","103.6206","14.7","213.56","11","60.03","21"
"06/09/12 06:42:51","103.6215","4.5","214.0","146","60.0","22"
"06/09/12 06:47:53","103.6226","9.3","213.84","0","60.0","22"
"06/09/12 06:52:52","103.6237","19.3","213.04","243","60.0","22"
"06/09/12 06:57:52","103.6251","11.4","213.33","3","60.0","23"
"06/09/12 07:02:52","103.6269","16.4","213.83","5","60.0","23"
"06/09/12 07:07:51","103.6288","37.0","214.11","246","60.0","23"
"06/09/12 07:12:52","103.6314","25.1","213.98","57","60.03","24"
"06/09/12 07:17:51","103.6329","15.9","213.51","44","60.03","24"
"06/09/12 07:22:51","103.6355","34.8","213.73","256","60.0","25"
"06/09/12 07:27:51","103.6372","35.5","215.2","332","60.0","25"
"06/09/12 07:32:52","103.6396","14.3","214.04","39","60.03","26"
"06/09/12 07:37:52","103.6416","32.3","213.96","56","60.03","26"
"06/09/12 07:42:53","103.6444","60.6","215.89","361","60.03","27"
"06/09/12 07:47:53","103.6468","32.2","214.72","288","60.03","27"
"06/09/12 07:52:51","103.6485","37.0","214.3","37","60.0","27"
"06/09/12 07:57:52","103.652","38.5","214.41","108","60.03","27"
"06/09/12 08:02:52","103.655","78.3","215.58","387","60.0","28"
"06/09/12 08:07:51","103.6576","54.5","214.08","386","60.0","28"
"06/09/12 08:12:52","103.6614","79.5","214.87","388","60.0","29"
"06/09/12 08:17:51","103.6653","28.7","213.54","203","59.96","29"
"06/09/12 08:22:51","103.6712","81.3","214.57","398","60.0","31"
"06/09/12 08:27:52","103.677","76.1","214.65","372","60.0","31"
"06/09/12 08:32:51","103.6816","91.1","214.65","441","60.0","32"
"06/09/12 08:37:52","103.6865","37.8","213.37","121","60.0","31"
"06/09/12 08:42:53","103.692","97.3","214.95","470","60.0","32"
"06/09/12 08:47:52","103.6998","88.0","215.04","425","60.0","32"
"06/09/12 08:52:52","103.7066","109.9","215.51","519","60.0","31"
"06/09/12 08:57:52","103.7135","112.2","215.71","531","60.0","31"
"06/09/12 09:02:51","103.7217","107.1","216.01","506","60.0","31"
"06/09/12 09:07:51","103.7292","33.2","213.66","243","60.03","31"
"06/09/12 09:12:51","103.7374","108.1","215.87","511","60.0","32"
"06/09/12 09:17:51","103.7458","110.1","216.35","518","60.03","32"
"06/09/12 09:22:52","103.7545","112.9","217.18","528","60.0","33"
"06/09/12 09:27:52","103.7634","115.2","216.67","543","60.03","33"
"06/09/12 09:32:51","103.7724","116.9","216.38","550","60.03","33"
"06/09/12 09:37:53","103.7817","119.2","215.58","561","60.0","34"
"06/09/12 09:42:52","103.7911","121.7","215.7","568","60.03","34"
"06/09/12 09:47:52","103.8006","121.9","215.56","572","60.0","34"
"06/09/12 09:52:52","103.8101","124.9","216.75","581","60.03","35"
"06/09/12 09:57:51","103.8198","126.8","215.76","595","60.03","35"
"06/09/12 10:02:51","103.8297","129.8","215.67","604","60.0","34"
"06/09/12 10:07:52","103.8397","125.7","216.39","584","60.03","35"
"06/09/12 10:12:52","103.8494","127.9","215.42","598","60.0","34"
"06/09/12 10:17:51","103.8593","130.3","215.22","610","60.0","35"
"06/09/12 10:22:52","103.8696","132.3","216.02","615","60.0","35"
"06/09/12 10:27:52","103.8801","129.7","215.89","606","60.03","35"
"06/09/12 10:32:52","103.8903","130.7","216.42","603","60.0","34"
"06/09/12 10:37:52","103.9006","135.5","216.15","626","60.0","35"
"06/09/12 10:42:52","103.9109","139.0","216.64","643","60.03","35"
"06/09/12 10:47:51","103.9218","138.9","217.16","638","60.03","35"
"06/09/12 10:52:51","103.9329","144.1","217.4","665","60.03","35"
"06/09/12 10:57:52","103.9441","146.4","217.38","668","60.03","35"
"06/09/12 11:02:51","103.9558","147.0","217.85","674","60.03","36"
"06/09/12 11:07:51","103.9674","148.9","216.97","685","60.0","36"
"06/09/12 11:12:52","103.979","147.9","216.47","679","60.0","37"
"06/09/12 11:17:51","103.9905","149.7","217.33","682","60.03","37"
"06/09/12 11:22:51","104.0025","46.1","215.06","101","60.0","37"
"06/09/12 11:27:53","104.0135","179.0","217.6","813","60.0","37"
"06/09/12 11:32:52","104.0247","165.3","217.36","751","60.03","38"
"06/09/12 11:37:52","104.0367","151.9","217.46","696","60.03","38"
"06/09/12 11:42:52","104.0483","148.8","217.43","679","60.0","38"
"06/09/12 11:47:52","104.0599","150.6","217.58","693","60.03","38"
"06/09/12 11:52:52","104.0714","149.5","217.59","684","60.0","38"
"06/09/12 11:57:52","104.0827","151.1","217.12","688","60.0","37"
"06/09/12 12:02:52","104.0945","145.8","217.71","668","60.03","38"
"06/09/12 12:07:52","104.1057","124.2","217.57","575","60.0","38"
"06/09/12 12:12:52","104.1159","125.5","217.16","586","60.0","38"
"06/09/12 12:17:51","104.1268","59.8","214.67","401","60.03","38"
"06/09/12 12:22:51","104.1379","166.3","218.09","755","60.03","38"
"06/09/12 12:27:52","104.1495","148.9","217.48","678","60.03","38"
"06/09/12 12:32:53","104.1614","153.1","217.58","700","60.0","38"
"06/09/12 12:37:51","104.1718","131.7","217.42","606","60.0","38"
"06/09/12 12:42:53","104.1809","149.8","218.17","684","60.0","37"
"06/09/12 12:47:52","104.1916","155.2","217.83","705","60.0","37"
"06/09/12 12:52:51","104.2013","157.9","217.5","724","60.0","36"
"06/09/12 12:57:51","104.213","155.8","217.0","714","60.03","36"
"06/09/12 13:02:51","104.2249","153.2","217.62","699","60.0","37"
"06/09/12 13:07:51","104.2366","152.5","217.75","697","60.0","38"
"06/09/12 13:12:51","104.2485","149.0","217.21","687","60.03","37"
"06/09/12 13:17:52","104.2601","148.6","217.93","678","60.03","37"
"06/09/12 13:22:52","104.2716","148.0","217.47","679","60.03","37"
"06/09/12 13:27:53","104.2829","148.4","217.39","683","60.0","37"
"06/09/12 13:32:52","104.2942","147.8","217.21","677","60.03","38"
"06/09/12 13:37:52","104.3057","145.5","218.38","663","60.0","38"
"06/09/12 13:42:52","104.317","144.3","216.89","664","60.03","38"
"06/09/12 13:47:53","104.3283","145.0","217.14","668","60.03","38"
"06/09/12 13:52:53","104.3394","142.8","217.12","656","60.0","38"
"06/09/12 13:57:52","104.3504","141.3","217.02","656","60.03","39"
"06/09/12 14:02:52","104.3615","141.5","217.46","656","60.03","39"
"06/09/12 14:07:52","104.3726","142.6","217.38","656","60.03","39"
"06/09/12 14:12:53","104.3835","137.2","216.97","630","60.0","39"
"06/09/12 14:17:52","104.3943","140.6","216.96","650","60.0","39"
"06/09/12 14:22:51","104.4051","138.1","216.34","640","60.0","39"
"06/09/12 14:27:52","104.4157","136.3","216.71","631","60.03","39"
"06/09/12 14:32:53","104.4261","128.1","216.73","597","60.0","40"
"06/09/12 14:37:51","104.4363","131.1","216.04","608","60.0","40"
"06/09/12 14:42:51","104.4464","128.1","215.82","594","60.03","40"
"06/09/12 14:47:52","104.4562","124.0","215.89","580","60.0","40"
"06/09/12 14:52:52","104.466","128.6","216.2","595","60.03","40"
"06/09/12 14:57:51","104.4759","131.3","215.98","610","60.0","41"
"06/09/12 15:02:51","104.486","125.8","216.2","588","60.0","41"
"06/09/12 15:07:53","104.495","106.5","215.46","506","60.03","41"
"06/09/12 15:12:52","104.5027","95.1","214.33","461","60.0","41"
"06/09/12 15:17:51","104.5108","108.2","215.15","511","60.0","41"
"06/09/12 15:22:53","104.5194","99.8","215.0","480","60.0","41"
"06/09/12 15:27:51","104.5259","65.3","214.02","330","60.03","41"
"06/09/12 15:32:52","104.5317","76.9","214.64","378","60.03","40"
"06/09/12 15:37:51","104.538","89.2","214.4","432","60.0","40"
"06/09/12 15:42:53","104.5463","110.7","215.69","518","60.03","40"
"06/09/12 15:47:52","104.5544","98.3","215.75","473","60.03","41"
"06/09/12 15:52:52","104.5617","89.6","215.34","437","60.03","41"
"06/09/12 15:57:51","104.5678","70.6","214.5","355","60.0","41"
"06/09/12 16:02:52","104.5738","83.9","215.5","411","60.03","40"
"06/09/12 16:07:53","104.5815","103.5","215.86","493","60.0","40"
"06/09/12 16:12:52","104.589","91.8","214.85","444","60.03","40"
"06/09/12 16:17:51","104.5962","96.2","215.01","459","60.0","40"
"06/09/12 16:22:52","104.6033","91.9","215.27","445","60.0","40"
"06/09/12 16:27:52","104.61","82.8","215.21","403","60.0","39"
"06/09/12 16:32:52","104.6169","89.6","214.88","435","60.03","39"
"06/09/12 16:37:52","104.6233","62.7","214.52","317","60.03","38"
"06/09/12 16:42:52","104.6292","85.0","214.91","410","60.0","38"
"06/09/12 16:47:52","104.6341","70.2","214.75","353","60.03","38"
"06/09/12 16:52:52","104.6396","83.8","214.71","412","60.0","37"
"06/09/12 16:57:52","104.646","78.5","214.89","387","60.03","37"
"06/09/12 17:02:52","104.6518","70.2","215.27","355","60.03","36"
"06/09/12 17:07:53","104.657","65.5","215.22","328","60.0","36"
"06/09/12 17:12:52","104.6618","43.4","215.91","361","60.03","36"
"06/09/12 17:17:52","104.6657","45.9","215.01","292","60.0","35"
"06/09/12 17:22:52","104.6695","45.5","215.79","261","60.03","34"
"06/09/12 17:27:52","104.6735","52.1","215.6","344","60.03","34"
"06/09/12 17:32:53","104.6772","50.5","215.29","274","60.03","33"
"06/09/12 17:37:52","104.6807","39.3","214.39","113","60.0","32"
"06/09/12 17:42:51","104.6838","42.8","213.8","279","60.0","32"
"06/09/12 17:47:51","104.6867","32.1","213.82","182","60.03","32"
"06/09/12 17:52:52","104.6894","37.2","213.48","130","60.03","31"
"06/09/12 17:57:52","104.6917","32.5","213.31","158","60.0","31"
"06/09/12 18:02:53","104.6939","23.1","213.67","330","60.07","30"
"06/09/12 18:07:51","104.6958","30.9","213.19","281","60.0","30"
"06/09/12 18:12:52","104.6975","27.3","213.69","97","60.0","29"
"06/09/12 18:17:53","104.699","24.8","213.87","111","60.0","29"
"06/09/12 18:22:52","104.7003","20.6","212.95","189","60.03","29"
"06/09/12 18:27:51","104.7013","16.4","213.07","276","60.03","29"
"06/09/12 18:32:54","104.7023","11.1","213.13","61","60.0","29"
"06/09/12 18:37:53","104.703","6.6","213.01","249","60.03","28"
"06/09/12 18:42:52","104.7037","10.7","212.75","1","60.03","28"
"06/09/12 18:47:53","104.7042","12.8","213.19","1","60.03","28"
"06/09/12 18:52:51","104.7047","6.6","212.53","237","60.0","28"
"06/09/12 18:57:52","104.705","12.9","213.07","0","60.0","28"
"06/09/12 19:02:53","104.7054","0.0","213.44","0","60.07","28"
"06/09/12 19:07:51","104.7058","0.0","213.27","0","60.03","28"
"06/09/12 19:12:52","104.7061","1.2","213.47","230","60.0","28"
"06/09/12 19:17:53","104.7063","0.0","213.7","0","60.0","27"
"06/09/12 19:32:52","104.707","13.9","212.92","15","60.0","27"
"06/10/12 06:17:11","104.7081","0.0","212.74","0","60.03","23"
"06/10/12 06:22:09","104.7086","0.0","212.83","230","60.0","23"
"06/10/12 06:27:10","104.7093","0.0","213.91","119","60.03","23"
"06/10/12 06:32:10","104.71","6.6","213.87","239","60.03","24"
"06/10/12 06:37:11","104.711","10.8","213.55","21","60.03","24"
"06/10/12 06:42:11","104.7121","16.3","213.16","5","60.0","24"
"06/10/12 06:47:09","104.7135","23.9","212.67","169","60.03","25"
"06/10/12 06:52:09","104.7151","20.3","213.19","220","60.0","25"
"06/10/12 06:57:11","104.7169","32.9","213.72","310","60.03","25"
"06/10/12 07:02:10","104.719","22.7","213.01","223","60.0","26"
"06/10/12 07:07:10","104.7213","35.7","212.88","268","60.03","26"
"06/10/12 07:12:09","104.7238","30.6","214.18","92","60.0","26"
"06/10/12 07:17:10","104.7266","32.6","213.75","140","60.03","27"
"06/10/12 07:22:10","104.7296","35.5","213.36","258","60.03","27"
"06/10/12 07:27:10","104.733","39.8","214.32","169","60.0","27"
"06/10/12 07:32:10","104.7365","52.2","213.73","116","60.03","28"
"06/10/12 07:37:10","104.7402","46.8","213.78","291","60.0","28"
"06/10/12 07:42:10","104.7442","46.7","213.84","395","60.03","29"
"06/10/12 07:47:11","104.7482","63.4","213.05","354","60.0","29"
"06/10/12 07:52:09","104.7522","40.9","214.05","383","60.03","30"
"06/10/12 07:57:09","104.7568","65.2","213.94","333","60.0","30"
"06/10/12 08:02:10","104.7621","69.4","213.72","346","59.96","31"
"06/10/12 08:07:10","104.7676","73.2","214.88","364","60.0","31"
"06/10/12 08:12:11","104.7735","76.7","214.2","382","60.0","32"
"06/10/12 08:17:10","104.7795","77.0","215.51","381","59.96","32"
"06/10/12 08:22:10","104.7852","71.1","215.17","354","60.0","33"
"06/10/12 08:27:11","104.791","74.8","215.1","364","60.0","33"
"06/10/12 08:32:09","104.7969","83.1","215.66","407","60.0","34"
"06/10/12 08:37:11","104.8036","88.9","215.39","429","60.03","34"
"06/10/12 08:42:10","104.8107","88.5","216.63","429","60.03","35"
"06/10/12 08:47:10","104.8173","83.9","215.72","407","60.03","35"
"06/10/12 08:52:10","104.8242","95.2","215.74","458","60.0","35"
"06/10/12 08:57:11","104.832","100.9","217.03","481","60.03","36"
"06/10/12 09:02:10","104.8397","101.0","216.11","479","60.03","36"
"06/10/12 09:07:10","104.8477","105.8","216.83","496","60.03","37"
"06/10/12 09:12:10","104.856","109.4","216.65","514","60.0","37"
"06/10/12 09:17:11","104.8646","111.7","216.77","526","60.03","37"
"06/10/12 09:22:11","104.8733","113.9","216.47","535","60.03","38"